Location: Axtheid
(49.6213°N, 11.8205°E)
Time: 13:40:02
(UTC+00:00)

Meteor 1-24 Rocket - Pass Details

Date: 24 January 2021
Orbit: 790 x 927 km, 81.3° (Epoch: 25 February)

Event Time Altitude Azimuth Distance (km) Brightness Sun altitude
Rises 17:02:36 0° 205° (SSW) 3,297 7.4 -10.9°
Reaches altitude 10° 17:05:03 10° 210° (SSW) 2,362 6.7 -11.3°
Maximum altitude 17:10:13 52° 287° (WNW) 981 4.4 -12.1°
Drops below altitude 10° 17:15:25 10° 4° (N) 2,373 5.9 -12.9°
Sets 17:17:53 0° 9° (N) 3,314 6.6 -13.3°
